Home   Weather   St. Veit an der Glan   Past weeks

Flag for Austria Past Weather in St. Veit an der Glan, Carinthia, Austria — Yesterday and Last 2 Weeks

Now
62 °F

Thundershowers. Low clouds.


Feels Like: 62 °F
Forecast: 51 / 71 °F
Wind: 7 mph from Northeast

Location: Klagenfurt-Flughafen

Current Time: Aug 19, 2017 at 8:57:10 pm

Latest Report: Aug 19, 2017 at 8:00 pm


Visibility: 9 mi

Pressure: 30.03 "Hg

Humidity: 83%

Dew Point: 57 °F

Location of St. Veit an der GlanLocation

Past Weather in St. Veit an der Glan — Graph

°F

St. Veit an der Glan Temperature Yesterday

Maximum temperature yesterday: 87 °F (at 5:00 pm)
Minimum temperature yesterday: 62 °F (at 6:00 am)
Average temperature yesterday: 73 °F

High & Low Weather Summary for the Past Weeks

 TemperatureHumidityPressure
High92 °F (Aug 4, 7:00 pm)95% (Aug 6, 10:00 pm)30.22 "Hg (Aug 6, 10:00 pm)
Low51 °F (Aug 13, 6:00 am)32% (Aug 11, 5:00 pm)29.73 "Hg (Aug 4, 7:00 pm)
Average70 °F71%30.03 "Hg
* Reported Aug 4 7:00 pm — Aug 19 7:00 pm, St. Veit an der Glan. Weather by CustomWeather, © 2017

Note: Actual official high and low records may vary slightly from our data, if they occured in-between our weather recording intervals... More about our weather records

Advertising

St. Veit an der Glan Weather History for the Previous 24 Hours

Scroll right to see more
 ConditionsComfort  
Time TempWeatherWind HumidityBarometerVisibility
7:00 pm
Sat, Aug 19
65 °FRain showers. Low clouds.3 mph85%30.01 "Hg28 mi
6:00 pm66 °FLow clouds.N/A82%30.00 "Hg22 mi
5:00 pm65 °FLow clouds.5 mph85%30.03 "Hg19 mi
4:00 pm66 °FLow clouds.N/A85%30.03 "Hg19 mi
3:00 pm65 °FRain showers. Low clouds.N/A88%30.03 "Hg22 mi
2:00 pm65 °FRain showers. Overcast.N/A92%30.02 "Hg8 mi
1:00 pm69 °FRain showers. Overcast.5 mph80%30.04 "Hg9 mi
12:00 pm72 °FOvercast.N/A63%29.99 "Hg17 mi
11:00 am71 °FOvercast.N/A66%29.99 "Hg22 mi
10:00 am67 °FLight rain. Overcast.N/A76%30.00 "Hg18 mi
9:00 am66 °FOvercast.N/A75%29.98 "Hg25 mi
8:00 am63 °FOvercast.N/A82%29.98 "Hg14 mi
7:00 am62 °FOvercast.N/A85%29.98 "Hg25 mi
6:00 am62 °FPassing clouds.N/A86%29.98 "Hg12 mi
5:00 am62 °FOvercast.N/A85%29.96 "Hg19 mi
4:00 am62 °FPassing clouds.N/A83%29.96 "Hg15 mi
3:00 am63 °FPassing clouds.N/A85%29.96 "Hg18 mi
2:00 am64 °FMild.N/A83%29.95 "Hg22 mi
1:00 am65 °FMild.N/A82%29.95 "Hg25 mi
12:00 am66 °FMild.N/A81%29.96 "Hg22 mi
11:00 pm
Fri, Aug 18
69 °FMild.N/A74%29.96 "Hg25 mi
10:00 pm71 °FMild.N/A73%29.93 "Hg25 mi
9:00 pm75 °FMild.N/A63%29.90 "Hg4 mi
8:00 pm81 °FWarm.N/A45%29.89 "Hg28 mi
Weather by CustomWeather, © 2017

See weather overviewHow to use our weather pages